Location: Unspecified
(0.0000°N, 0.0000°E)
Time: 23:07:24
(UTC+00:00)

S-56A Canister/Altair - Visible Passes

Search period start: 28 May 2022 00:00
Search period end: 07 June 2022 00:00
Orbit: 634 x 2499 km, 38.9° (Epoch: 28 May)

Date Brightness Start Highest point End Pass type
(mag) Time Alt. Az. Time Alt. Az. Time Alt. Az.
28 May 11.5 21:22:05 10° N 21:25:15 11° NNE 21:28:17 10° NNE visible
28 May 11.2 23:23:23 10° NNW 23:27:31 20° NNW 23:27:31 20° NNW visible
29 May 11.1 22:49:57 10° NNW 22:56:01 23° N 22:56:01 23° N visible
30 May 11.0 22:16:35 10° NNW 22:24:35 25° NNE 22:24:35 25° NNE visible
31 May 11.6 00:21:51 10° NW 00:21:57 10° NW 00:21:57 10° NW visible
31 May 10.9 21:43:16 10° NNW 21:53:09 24° NNE 21:53:09 24° NNE visible
31 May 11.4 23:48:09 10° NW 23:50:33 17° NW 23:50:33 17° NW visible
01 Jun 11.0 21:10:02 10° NNW 21:20:23 22° NNE 21:21:47 22° NE visible
01 Jun 11.1 23:14:30 10° NW 23:19:11 24° NNW 23:19:11 24° NNW visible
02 Jun 11.1 20:36:56 10° NNW 20:46:37 20° NNE 20:50:29 18° NE visible
02 Jun 10.8 22:40:54 10° NW 22:47:52 32° NNW 22:47:52 32° NNW visible
03 Jun 11.2 20:03:57 10° N 20:12:47 18° NNE 20:19:12 13° ENE visible
03 Jun 10.6 22:07:23 10° NNW 22:16:36 39° N 22:16:36 39° N visible
04 Jun 11.3 19:31:12 10° N 19:38:54 15° NNE 19:46:22 10° ENE visible
04 Jun 10.4 21:33:57 10° NNW 21:45:23 42° NNE 21:45:23 42° NNE visible
04 Jun 11.4 23:40:40 10° WNW 23:42:47 16° WNW 23:42:47 16° WNW visible
05 Jun 11.4 18:58:45 10° N 19:04:59 13° NNE 19:11:11 10° NE visible
05 Jun 10.4 21:00:36 10° NNW 21:14:12 41° NE 21:14:12 41° NE visible
05 Jun 11.1 23:06:44 10° NW 23:11:37 25° WNW 23:11:37 25° WNW visible
06 Jun 11.6 18:26:57 10° N 18:31:02 11° NNE 18:35:09 10° NE visible
06 Jun 10.4 20:27:21 10° NNW 20:40:39 36° NE 20:43:05 35° NE visible
06 Jun 10.7 22:32:55 10° NW 22:40:30 37° NW 22:40:30 37° NW visible
